Regional Weather Roundup
Issued by NWS

Home | Current Version | Previous Version | Graphics & Text | Print | Product List | Glossary On
Versions: 1 2 3 4 5 6 7 8 9 10 11 12 13 14 15 16 17 18 19 20 21 22 23 24 25 26 27 28 29 30 31 32 33 34 35 36 37 38 39 40 41 42 43 44 45 46 47 48 49 50
000
ASUS43 KIND 261209
RWRIN

WEATHER ROUNDUP FOR INDIANA
NATIONAL WEATHER SERVICE INDIANAPOLIS IN
800 AM EDT TUE JUL 26 2016

NOTE: "FAIR" INDICATES FEW OR NO CLOUDS BELOW 12,000 FEET WITH NO
SIGNIFICANT WEATHER AND/OR OBSTRUCTIONS TO VISIBILITY.

* - STATION DOES NOT REPORT WEATHER SUCH AS PRECIPITATION OR FOG.

+ - STATION NOT QUALITY CONTROLLED BY THE NATIONAL WEATHER SERVICE.
    USE DATA WITH CAUTION...ESPECIALLY DEWPOINT AND RELATIVE
    HUMIDITY OBSERVATIONS.

INZ001>003-010>013-019-020-261300-
NORTHWEST INDIANA

CITY           SKY/WX    TMP DP  RH WIND       PRES   REMARKS
GARY /AIRPORT/ PTSUNNY   72  72 100 CALM      30.07R
KNOX *+        MOSUNNY   64  63  94 CALM      30.07R
LA PORTE +     PTSUNNY   71  71 100 CALM      30.09R
MICHIGAN CITY+ SUNNY     64  64 100 CALM      30.08R
MONTICELLO +   PTSUNNY   69  60  75 CALM      30.06R
6HR MIN TEMP:  64; 6HR MAX TEMP:  69;

RENSSELAER +   SUNNY     68  66  94 CALM      30.07R
VALPARAISO     PTSUNNY   69  65  86 CALM      30.08R
6HR MIN TEMP:  65; 6HR MAX TEMP:  69;


$$

LMZ046-743>745-261300-
SOUTHERN LAKE MICHIGAN

STATION/POSITION TIME  TEMP    WIND        PRES    WAVE
                       AIR SEA DIR/SP/G            HT
                 (UTC) (F)     (DEG/KT/KT) (MB)    (FT)
BURNS HARBOR     1102   72        CALM     1018.3R
MICHIGAN CITY    1100   70     110/  3/  3   N/A
5NW MICH CITY    1200   75 74  120/  2/  2   N/A     0

$$

INZ004-005-014>016-021>024-261300-
NORTH CENTRAL INDIANA

CITY           SKY/WX    TMP DP  RH WIND       PRES   REMARKS
ELKHART        SUNNY     68  68 100 CALM      30.09R
GOSHEN         SUNNY     67  63  87 CALM      30.09R
6HR MIN TEMP:  63; 6HR MAX TEMP:  67;

LOGANSPORT +   MOSUNNY   68  63  83 NE8       30.07S
PERU/GRISSOM   MOSUNNY   69  64  86 NE8       30.05F
6HR MIN TEMP:  63; 6HR MAX TEMP:  69;

ROCHESTER +    SUNNY     68  66  94 CALM      30.08S
SOUTH BEND     SUNNY     69  63  81 CALM      30.08R
6HR MIN TEMP:  63; 6HR MAX TEMP:  69;

WARSAW +       SUNNY     64  63  94 CALM      30.09R

$$

INZ006>009-017-018-025>027-261300-
NORTHEAST INDIANA

CITY           SKY/WX    TMP DP  RH WIND       PRES   REMARKS
ANGOLA *+        N/A     63  54  72 CALM      30.09R
AUBURN +       MOSUNNY   68  63  83 CALM      30.09R
FORT WAYNE     MOSUNNY   68  63  84 CALM      30.08R
6HR MIN TEMP:  61; 6HR MAX TEMP:  69;

HUNTINGTON +   MOSUNNY   66  65  96 CALM      30.08R
6HR MIN TEMP:  61; 6HR MAX TEMP:  66;


$$

INZ028-029-035-036-043>045-051>053-261300-
WEST CENTRAL INDIANA

CITY           SKY/WX    TMP DP  RH WIND       PRES   REMARKS
CRAWFORDSVL +  CLOUDY    70  67  90 CALM      30.05F
6HR MIN TEMP:  67; 6HR MAX TEMP:  70;

GREENCASTLE +  MOSUNNY   72  68  88 CALM      30.05S
LAFAYETTE      CLOUDY    71  64  78 E7        30.05S
6HR MIN TEMP:  66; 6HR MAX TEMP:  71;

TERRE HAUTE    CLOUDY    75  69  81 CALM      30.03R
6HR MIN TEMP:  73; 6HR MAX TEMP:  76;


$$

INZ030>032-037>040-046>048-054>057-064-065-261300-
CENTRAL INDIANA

CITY           SKY/WX    TMP DP  RH WIND       PRES   REMARKS
COLUMBUS       PTSUNNY   73  73 100 NE3       30.04S
INDIANAPOLIS   CLOUDY    75  64  68 NE8       30.04F
6HR MIN TEMP:  74; 6HR MAX TEMP:  77;

-EAGLE CREEK   CLOUDY    74  64  71 NE7       30.04F
6HR MIN TEMP:  74; 6HR MAX TEMP:  77;

KOKOMO *+      PTSUNNY   70  61  73 NE12      30.06F
6HR MIN TEMP:  61; 6HR MAX TEMP:  70;

MARION +       PTSUNNY   65  65 100 N3        30.08S
MT COMFORT *+  CLOUDY    70  66  88 NE5       30.06F
SHELBYVILLE    CLOUDY    75  67  76 NE6       30.04S
6HR MIN TEMP:  73; 6HR MAX TEMP:  77;

ZIONSVILLE +   CLOUDY    69  64  84 NE5       30.07S
6HR MIN TEMP:  66; 6HR MAX TEMP:  69;


$$

INZ033-034-041-042-049-050-058-059-261300-
EAST CENTRAL INDIANA

CITY           SKY/WX    TMP DP  RH WIND       PRES   REMARKS
MUNCIE         MOSUNNY   71  65  81 NE3       30.07R
6HR MIN TEMP:  66; 6HR MAX TEMP:  72;


$$

INZ060-061-067>069-081>083-085>088-261300-
SOUTHWEST INDIANA

CITY           SKY/WX    TMP DP  RH WIND       PRES   REMARKS
EVANSVILLE     CLOUDY    75  73  93 CALM      30.02R
6HR MIN TEMP:  72; 6HR MAX TEMP:  75;

HUNTINGBURG *+ CLOUDY    73  72  94 E5        30.02S VSB 1
6HR MIN TEMP:  73; 6HR MAX TEMP:  75;

WASHINGTON +   FOG       75  75 100 MISG      30.01F VSB 1
6HR MIN TEMP:  73; 6HR MAX TEMP:  76;


$$

INZ062-063-066-070>080-084-089>092-261300-
SOUTH CENTRAL AND SOUTHEAST INDIANA

CITY           SKY/WX    TMP DP  RH WIND       PRES   REMARKS
BLOOMINGTON    CLOUDY    77  67  71 NE5       30.04S
6HR MIN TEMP:  73; 6HR MAX TEMP:  77;

MADISON *+     CLOUDY    73  72  94 CALM      30.06S

$$





USA.gov is the U.S. government's official web portal to all federal, state and local government web resources and services.